This is the latest recevied weather packets stored in our database for station/object NE8U. If no packets are shown the sender has not sent any weather packets the latest 10 day(s).
| Time | Temp. | Humidity | Pressure | Rain* | Wind** | Luminosity | Snow |
|---|---|---|---|---|---|---|---|
| 1777967797 | 14.44° C | 94% | 1016.2 hPa | 1.27 mm | - | 0 W/m² | - |
| 1777967494 | 14.44° C | 94% | 1016.4 hPa | 1.78 mm | - | 0 W/m² | - |
| 1777967191 | 14.44° C | 94% | 1016 hPa | 3.05 mm | - | 0 W/m² | - |
| 1777966888 | 14.44° C | 94% | 1016.2 hPa | 3.05 mm | - | 0 W/m² | - |
| 1777966586 | 14.44° C | 94% | 1016.6 hPa | 3.05 mm | - | 0 W/m² | - |
| 1777966284 | 14.44° C | 94% | 1016.5 hPa | 3.05 mm | - | 0 W/m² | - |
| 1777965979 | 14.44° C | 95% | 1016.5 hPa | 1.78 mm | - | 0 W/m² | - |
| 1777965676 | 14.44° C | 95% | 1016.5 hPa | 0 mm | - | 0 W/m² | - |
| 1777965371 | 15° C | 95% | 1016.7 hPa | 1.27 mm | - | 0 W/m² | - |
| 1777965069 | 15° C | 95% | 1016.5 hPa | 1.27 mm | - | 0 W/m² | - |
| 1777964766 | 15° C | 95% | 1016.5 hPa | 0 mm | - | 0 W/m² | - |
| 1777964463 | 15° C | 95% | 1016.3 hPa | 1.78 mm | - | 0 W/m² | - |
| 1777964158 | 15° C | 95% | 1016.5 hPa | 1.78 mm | - | 0 W/m² | - |
| 1777963855 | 15° C | 94% | 1016.5 hPa | 1.78 mm | - | 0 W/m² | - |
| 1777963552 | 15° C | 94% | 1016.5 hPa | 1.27 mm | - | 0 W/m² | - |
| 1777963251 | 15° C | 94% | 1016.2 hPa | 1.27 mm | - | 0 W/m² | - |
| 1777962948 | 15° C | 94% | 1016.4 hPa | 1.78 mm | - | 0 W/m² | - |
| 1777962643 | 15° C | 93% | 1016.2 hPa | 1.78 mm | - | 0 W/m² | - |
| 1777962340 | 15° C | 93% | 1016.4 hPa | 1.27 mm | - | 0 W/m² | - |
| 1777962037 | 15° C | 92% | 1016.3 hPa | 1.27 mm | - | 0 W/m² | - |
| 1777961735 | 15° C | 92% | 1016.4 hPa | 1.78 mm | - | 0 W/m² | - |
| 1777961432 | 15° C | 92% | 1016.4 hPa | 1.78 mm | - | 0 W/m² | - |
| 1777961130 | 15° C | 92% | 1016.4 hPa | 0 mm | - | 0 W/m² | - |
| 1777960826 | 15° C | 91% | 1016.3 hPa | 0 mm | - | 0 W/m² | - |
| 1777960521 | 15° C | 91% | 1016.3 hPa | 0 mm | - | 0 W/m² | - |
* Rain latest hour (hover to see other rain measurements)
** Current wind speed in m/s (hover to see current wind gust speed)